Weather History for Kansas City, MO

Change the Weather History Date:

Friday, June 14, 2013

  Actual Average Record
Temperature  
Mean Temperature 78 °F -  
Max Temperature 90 °F 80 °F 93 °F (2011)
Min Temperature 68 °F 62 °F 55 °F (2002)
Cooling Degree Days 14    
Growing Degree Days 28 (Base 50)    
Moisture  
Dew Point 65 °F    
Average Humidity 64    
Maximum Humidity 81    
Minimum Humidity 47    
Precipitation  
Precipitation 0.00 in - - ()
Sea Level Pressure  
Sea Level Pressure 29.94 in    
Wind  
Wind Speed 7 mph (ESE)    
Max Wind Speed 17 mph    
Max Gust Speed 25 mph    
Visibility 10 miles    
Events      
Averages and records for this station are not official NWS values.
T = Trace of Precipitation, MM = Missing Value Source: NWS Daily Summary

Daily Weather History Graph

Daily Weather History Graph

Search for Another Location

Airport:

Trip Planner

Search our weather history database for the weather conditions in past years. The results will help you decide how hot, cold, wet, or windy it might be!

Date:

Astronomy

Jun. 14, 2013 Rise Set
Actual Time 5:51 AM CDT 8:45 PM CDT
Civil Twilight 5:19 AM CDT 9:18 PM CDT
Nautical Twilight 4:39 AM CDT 9:58 PM CDT
Astronomical Twilight 3:52 AM CDT 10:45 PM CDT
Moon 11:25 AM CDT (6/14) No Moon Set
Length of Visible Light 15h 58m
Length of Day
14h 54m
Waxing Crescent, 30% of the Moon is Illuminated
Jun 14
Waxing Crescent
Jun 16
First Quarter
Jun 23
Full
Jun 29
Last Quarter
Jul 8
New

Hourly Weather History & Observations

Time (CDT) Temp. Heat Index Dew Point Humidity Pressure Visibility Wind Dir Wind Speed Gust Speed Precip Events Conditions
12:54 AM 70.0 °F - 62.1 °F 76% 29.99 in 10.0 mi ENE 3.5 mph - N/A   Clear
1:54 AM 70.0 °F - 63.0 °F 78% 29.99 in 10.0 mi East 5.8 mph - N/A   Clear
2:54 AM 69.1 °F - 63.0 °F 81% 30.00 in 10.0 mi NNE 3.5 mph - N/A   Clear
3:54 AM 68.0 °F - 62.1 °F 81% 29.99 in 10.0 mi East 3.5 mph - N/A   Clear
4:54 AM 69.1 °F - 63.0 °F 81% 29.96 in 10.0 mi SE 8.1 mph - N/A   Clear
5:54 AM 69.1 °F - 63.0 °F 81% 29.99 in 10.0 mi NNE 4.6 mph - N/A   Scattered Clouds
6:54 AM 70.0 °F - 64.0 °F 81% 30.01 in 10.0 mi ENE 3.5 mph - N/A   Mostly Cloudy
7:54 AM 73.0 °F - 64.0 °F 73% 30.00 in 10.0 mi ESE 5.8 mph - N/A   Mostly Cloudy
8:54 AM 75.9 °F - 64.9 °F 69% 30.00 in 10.0 mi East 6.9 mph - N/A   Overcast
9:54 AM 79.0 °F - 63.0 °F 58% 29.97 in 10.0 mi SSE 13.8 mph 23.0 mph N/A   Scattered Clouds
10:54 AM 82.0 °F 83.1 °F 63.0 °F 52% 29.97 in 10.0 mi South 10.4 mph 19.6 mph N/A   Clear
11:54 AM 84.0 °F 84.5 °F 62.1 °F 47% 29.96 in 10.0 mi SE 13.8 mph - N/A   Scattered Clouds
12:54 PM 84.9 °F 85.9 °F 63.0 °F 48% 29.95 in 10.0 mi Variable 6.9 mph 19.6 mph N/A   Clear
1:54 PM 87.1 °F 89.2 °F 66.0 °F 49% 29.94 in 10.0 mi ESE 12.7 mph 19.6 mph N/A   Clear
2:54 PM 89.1 °F 92.9 °F 68.0 °F 50% 29.91 in 10.0 mi SE 10.4 mph 19.6 mph N/A   Clear
3:54 PM 89.1 °F 93.7 °F 69.1 °F 52% 29.89 in 10.0 mi SE 10.4 mph - N/A   Scattered Clouds
4:54 PM 89.1 °F 94.1 °F 70.0 °F 53% 29.88 in 10.0 mi South 6.9 mph - N/A   Overcast
5:54 PM 87.1 °F 92.0 °F 70.0 °F 57% 29.86 in 10.0 mi SSE 12.7 mph 19.6 mph N/A   Partly Cloudy
6:54 PM 87.1 °F 92.0 °F 70.0 °F 57% 29.86 in 10.0 mi SE 11.5 mph 25.3 mph N/A   Clear
7:54 PM 86.0 °F 90.7 °F 70.0 °F 59% 29.88 in 10.0 mi SE 8.1 mph 18.4 mph N/A   Partly Cloudy
8:54 PM 82.9 °F 85.8 °F 68.0 °F 60% 29.87 in 10.0 mi SE 17.3 mph 23.0 mph N/A   Scattered Clouds
9:54 PM 82.0 °F 84.5 °F 66.9 °F 60% 29.91 in 10.0 mi SE 8.1 mph 20.7 mph N/A   Mostly Cloudy
10:54 PM 81.0 °F 83.0 °F 66.0 °F 60% 29.91 in 10.0 mi SE 12.7 mph 20.7 mph N/A   Overcast
11:54 PM 80.1 °F 82.3 °F 66.9 °F 64% 29.90 in 10.0 mi SSE 13.8 mph 21.9 mph N/A   Clear